This demonstration page uses our WeatherBlox Daily Observations layout. Learn more.

Hourly Observations for November 28, 2018

Temp ( °F °C ) Dew Point ( °F °C ) Humidity (%) Winds ( mph kmh ) Pressure ( in mb ) Visibility ( mi km ) Precip ( " mm )
12:15 am 00:15 Cloudy 28 -2.5 28 -2.5 100 100 S 13 20 29.94 1014 7 11.265408 0 0
12:35 am 00:35 Cloudy 28 -2.5 28 -2.5 100 100 S 12 19 29.94 1014 7 11.265408 0 0
12:55 am 00:55 Cloudy 27 -2.6 27 -2.6 100 100 S 13 20 29.91 1013 7 11.265408 0 0
1:15 am 01:15 Cloudy 27 -2.7 27 -2.7 100 100 S 12 19 29.91 1013 7 11.265408 0 0
1:35 am 01:35 Cloudy 27 -2.8 27 -2.8 100 100 S 12 19 29.91 1013 7 11.265408 0 0
1:55 am 01:55 Partly Cloudy 26 -3.1 26 -3.1 100 100 S 14 22 29.91 1013 7 11.265408 0 0
2:15 am 02:15 Clear 26 -3.2 26 -3.2 100 100 S 13 20 29.91 1013 7 11.265408 0 0
2:35 am 02:35 Clear 26 -3.4 26 -3.4 100 100 S 12 19 29.91 1013 7 11.265408 0 0
2:55 am 02:55 Clear 26 -3.5 26 -3.5 100 100 S 14 22 29.88 1012 7 11.265408 0 0
3:15 am 03:15 Partly Cloudy 26 -3.3 26 -3.3 100 100 S 15 24 29.88 1012 7 11.265408 0 0
3:35 am 03:35 Mostly Cloudy 26 -3.2 26 -3.2 100 100 S 13 20 29.88 1012 7 11.265408 0 0
3:55 am 03:55 Partly Cloudy 26 -3.1 26 -3.1 100 100 S 12 19 29.85 1011 7 11.265408 0 0
4:15 am 04:15 Partly Cloudy 26 -3.2 26 -3.2 100 100 S 12 19 29.85 1011 7 11.265408 0 0
4:35 am 04:35 Partly Cloudy 26 -3.2 26 -3.2 100 100 S 10 17 29.85 1011 7 11.265408 0 0
4:55 am 04:55 Partly Cloudy 26 -3.1 26 -3.1 100 100 S 8 13 29.85 1011 7 11.265408 0 0
5:15 am 05:15 Clear 27 -3 27 -3 100 100 S 9 15 29.85 1011 7 11.265408 0 0
5:35 am 05:35 Clear 27 -3 27 -3 100 100 S 10 17 29.85 1011 7 11.265408 0 0
5:55 am 05:55 Clear 27 -3 27 -3 100 100 S 10 17 29.85 1011 7 11.265408 0 0
6:15 am 06:15 Clear 27 -2.6 27 -2.6 100 100 S 12 19 29.83 1010 7 11.265408 0 0
6:35 am 06:35 Clear 27 -2.6 27 -2.6 100 100 SSW 13 20 29.83 1010 7 11.265408 0 0
6:55 am 06:55 Clear 28 -2.5 28 -2.5 100 100 S 13 20 29.83 1010 7 11.265408 0 0
7:15 am 07:15 Clear 28 -2.5 28 -2.5 100 100 S 14 22 29.8 1009 7 11.265408 0 0
7:35 am 07:35 Clear 28 -2.2 28 -2.2 100 100 S 13 20 29.8 1009 7 11.265408 0 0
7:55 am 07:55 Sunny 28 -2 28 -2 100 100 SSW 14 22 29.8 1009 10 16.09344 0 0
8:15 am 08:15 Sunny 29 -1.6 29 -1.7 99 99 S 9 15 29.8 1009 10 16.09344 0 0
8:35 am 08:35 Sunny 29 -1.4 29 -1.5 99 99 S 10 17 29.8 1009 10 16.09344 0 0
8:55 am 08:55 Partly Cloudy 30 -1.2 29 -1.5 98 98 S 9 15 29.8 1009 10 16.09344 0 0
9:15 am 09:15 Mostly Cloudy 30 -1 30 -1.3 98 98 SSW 10 17 29.8 1009 10 16.09344 0 0
9:35 am 09:35 Mostly Cloudy 31 -0.6 30 -1 97 97 SSW 6 9 29.8 1009 10 16.09344 0 0
9:55 am 09:55 Cloudy 32 0 31 -0.5 96 96 SSW 12 19 29.77 1008 10 16.09344 0 0
10:15 am 10:15 Partly Cloudy 33 0.8 32 0 94 94 SW 8 13 29.77 1008 10 16.09344 0 0
10:35 am 10:35 Sunny 36 2.1 33 0.4 89 89 SSW 12 19 29.77 1008 10 16.09344 0 0
10:55 am 10:55 Sunny 38 3.2 34 0.9 85 85 SW 9 15 29.74 1007 10 16.09344 0 0
11:15 am 11:15 Sunny 40 4.4 35 1.4 81 81 SW 9 15 29.74 1007 10 16.09344 0 0
11:35 am 11:35 Sunny 40 4.7 35 1.6 81 81 SW 8 13 29.71 1006 10 16.09344 0 0
11:55 am 11:55 Sunny 43 5.9 36 2 76 76 WSW 7 11 29.71 1006 10 16.09344 0 0
12:15 pm 12:15 Sunny 46 7.6 36 2.3 69 69 WSW 9 15 29.68 1005 10 16.09344 0 0
12:35 pm 12:35 Sunny 47 8.6 36 2.4 65 65 WSW 14 22 29.68 1005 10 16.09344 0 0
12:55 pm 12:55 Sunny 48 9.1 37 3 66 66 WSW 10 17 29.68 1005 10 16.09344 0 0
1:15 pm 13:15 Partly Cloudy 51 10.3 38 3.3 62 62 W 13 20 29.65 1004 10 16.09344 0 0
1:35 pm 13:35 Mostly Cloudy 52 10.9 40 4.3 64 64 W 14 22 29.65 1004 10 16.09344 0 0
1:55 pm 13:55 Mostly Cloudy 52 11 39 4 62 62 WNW 10 17 29.65 1004 10 16.09344 0 0
2:15 pm 14:15 Partly Cloudy 50 10.1 39 3.8 65 65 WNW 13 20 29.65 1004 10 16.09344 0 0
2:35 pm 14:35 Sunny 51 10.5 40 4.6 67 67 WNW 12 19 29.65 1004 10 16.09344 0 0
2:55 pm 14:55 Sunny 51 10.6 40 4.6 67 67 WNW 10 17 29.68 1005 10 16.09344 0 0
3:15 pm 15:15 Sunny 51 10.8 41 5.1 68 68 WNW 9 15 29.68 1005 10 16.09344 0 0
3:35 pm 15:35 Sunny 52 10.9 41 5.1 68 68 WNW 8 13 29.68 1005 10 16.09344 0 0
3:55 pm 15:55 Sunny 52 11 42 5.6 70 70 WNW 7 11 29.68 1005 10 16.09344 0 0
4:15 pm 16:15 Sunny 49 9.7 42 5.5 75 75 W 5 7 29.68 1005 10 16.09344 0 0
4:35 pm 16:35 Sunny 47 8.5 41 5.1 79 79 W 6 9 29.71 1006 10 16.09344 0 0
4:55 pm 16:55 Sunny 47 8.3 40 4.5 77 77 W 6 9 29.71 1006 10 16.09344 0 0
5:15 pm 17:15 Clear 45 7.2 39 3.8 79 79 W 7 11 29.71 1006 10 16.09344 0 0
5:35 pm 17:35 Clear 43 6.1 38 3.3 82 82 W 8 13 29.74 1007 10 16.09344 0 0
5:55 pm 17:55 Clear 43 6.3 38 3.3 81 81 W 7 11 29.71 1006 10 16.09344 0 0
6:15 pm 18:15 Clear 43 6.2 38 3.5 83 83 WNW 6 9 29.74 1007 10 16.09344 0 0
6:35 pm 18:35 Clear 41 5.2 37 2.8 85 85 W 6 9 29.77 1008 10 16.09344 0 0
6:55 pm 18:55 Clear 41 5.1 38 3.1 87 87 W 7 11 29.77 1008 10 16.09344 0 0
7:15 pm 19:15 Clear 40 4.7 37 2.9 88 88 W 7 11 29.77 1008 10 16.09344 0 0
7:35 pm 19:35 Clear 40 4.6 37 2.6 87 87 WNW 5 7 29.77 1008 10 16.09344 0 0
7:55 pm 19:55 Clear 39 4.1 37 2.5 89 89 WNW 6 9 29.77 1008 10 16.09344 0 0
8:15 pm 20:15 Clear 40 4.2 37 2.6 89 89 W 5 7 29.77 1008 10 16.09344 0 0
8:35 pm 20:35 Clear 38 3.4 36 2.3 93 93 W 3 6 29.77 1008 10 16.09344 0 0
8:55 pm 20:55 Clear 38 3.5 37 2.6 94 94 W 7 11 29.77 1008 10 16.09344 0 0
9:15 pm 21:15 Clear 38 3.3 36 2.3 93 93 W 7 11 29.8 1009 10 16.09344 0 0
9:35 pm 21:35 Clear 38 3.5 36 2.2 91 91 W 6 9 29.77 1008 10 16.09344 0 0
9:55 pm 21:55 Clear 39 3.7 36 2.3 91 91 W 7 11 29.77 1008 10 16.09344 0 0
10:15 pm 22:15 Clear 38 3.6 36 2.3 91 91 W 7 11 29.77 1008 10 16.09344 0 0
10:35 pm 22:35 Clear 38 3.1 36 2.3 95 95 W 3 6 29.83 1010 10 16.09344 0 0
10:55 pm 22:55 Clear 38 3.2 36 2.3 94 94 W 3 6 29.83 1010 10 16.09344 0 0
11:15 pm 23:15 Clear 38 3.1 36 2.2 94 94 SW 5 7 29.83 1010 10 16.09344 0 0
11:35 pm 23:35 Clear 36 2.1 35 1.4 95 95 Calm 29.83 1010 10 16.09344 0 0
11:55 pm 23:55 Clear 37 2.5 36 2.1 97 97 W 6 9 29.83 1010 10 16.09344 0 0

Powered by AerisWeather